| time (UTC) | temp F | wind direction | speed knots | gust knots | rain 1hr in | rain 24hr in | rain mn in | humidity % | barometer mb |
| 20260503192508 | 68 | 357 | 9.6 | 12.2 | 0.00 | 0.00 | 0.00 | 39 | 1020.3 |
| 20260503192214 | 68 | 0 | 1.7 | 2.6 | 0.00 | 0.00 | 0.00 | 44 | 1020.3 |
| 20260503192008 | 67 | 359 | 0.9 | 5.2 | 0.00 | 0.00 | 0.00 | 44 | 1020.3 |
| 20260503191509 | 67 | 289 | 1.7 | 2.6 | 0.00 | 0.00 | 0.00 | 42 | 1020.3 |
| 20260503191214 | 67 | 285 | 4.3 | 5.2 | 0.00 | 0.00 | 0.00 | 42 | 1020.5 |
| 20260503191008 | 67 | 222 | 0.9 | 0.9 | 0.00 | 0.00 | 0.00 | 45 | 1020.5 |
| 20260503190507 | 67 | 160 | 0.9 | 0.9 | 0.00 | 0.00 | 0.00 | 41 | 1020.5 |
| 20260503190215 | 67 | 291 | 6.1 | 8.7 | 0.00 | 0.00 | 0.00 | 42 | 1020.5 |
| 20260503190008 | 67 | 311 | 1.7 | 8.7 | 0.00 | 0.00 | 0.00 | 43 | 1020.5 |
| 20260503185508 | 67 | 275 | 2.6 | 4.3 | 0.00 | 0.00 | 0.00 | 40 | 1020.8 |
| 20260503185213 | 67 | 289 | 0.9 | 2.6 | 0.00 | 0.00 | 0.00 | 41 | 1020.8 |
| 20260503185007 | 67 | 322 | 0.0 | 1.7 | 0.00 | 0.00 | 0.00 | 42 | 1020.8 |
| 20260503184507 | 67 | 38 | 0.9 | 1.7 | 0.00 | 0.00 | 0.00 | 44 | 1020.8 |
| 20260503184214 | 67 | 326 | 0.0 | 3.5 | 0.00 | 0.00 | 0.00 | 42 | 1021.0 |
| 20260503184009 | 67 | 0 | 4.3 | 8.7 | 0.00 | 0.00 | 0.00 | 43 | 1021.0 |
| 20260503183509 | 67 | 305 | 0.9 | 2.6 | 0.00 | 0.00 | 0.00 | 41 | 1021.0 |
| 20260503183214 | 67 | 11 | 9.6 | 10.4 | 0.00 | 0.00 | 0.00 | 45 | 1021.0 |
| 20260503183007 | 67 | 241 | 3.5 | 4.3 | 0.00 | 0.00 | 0.00 | 42 | 1021.0 |
| 20260503182507 | 67 | 328 | 1.7 | 5.2 | 0.00 | 0.00 | 0.00 | 43 | 1021.2 |
| 20260503182214 | 67 | 298 | 1.7 | 6.1 | 0.00 | 0.00 | 0.00 | 43 | 1021.2 |
| 20260503182009 | 66 | 304 | 2.6 | 6.1 | 0.00 | 0.00 | 0.00 | 43 | 1021.2 |
| 20260503181509 | 66 | 315 | 3.5 | 7.8 | 0.00 | 0.00 | 0.00 | 42 | 1021.2 |
| 20260503181214 | 66 | 25 | 0.9 | 4.3 | 0.00 | 0.00 | 0.00 | 41 | 1021.3 |
| 20260503181008 | 66 | 251 | 0.0 | 2.6 | 0.00 | 0.00 | 0.00 | 44 | 1021.3 |
| 20260503180508 | 66 | 304 | 0.9 | 2.6 | 0.00 | 0.00 | 0.00 | 43 | 1021.3 |
| 20260503180214 | 66 | 17 | 4.3 | 4.3 | 0.00 | 0.00 | 0.00 | 45 | 1021.3 |
| 20260503180008 | 66 | 332 | 2.6 | 4.3 | 0.00 | 0.00 | 0.00 | 47 | 1021.3 |
| 20260503175509 | 65 | 325 | 0.9 | 3.5 | 0.00 | 0.00 | 0.00 | 48 | 1021.3 |
| 20260503175213 | 65 | 3 | 4.3 | 4.3 | 0.00 | 0.00 | 0.00 | 47 | 1021.3 |
| 20260503175007 | 65 | 296 | 0.0 | 4.3 | 0.00 | 0.00 | 0.00 | 48 | 1021.3 |
| 20260503174509 | 65 | 320 | 3.5 | 3.5 | 0.00 | 0.00 | 0.00 | 47 | 1021.3 |
| 20260503174214 | 64 | 54 | 0.9 | 0.9 | 0.00 | 0.00 | 0.00 | 47 | 1021.6 |
| 20260503174008 | 64 | 1 | 2.6 | 2.6 | 0.00 | 0.00 | 0.00 | 48 | 1021.6 |
| 20260503173508 | 64 | 272 | 0.0 | 1.7 | 0.00 | 0.00 | 0.00 | 50 | 1021.6 |
| 20260503173214 | 64 | 357 | 4.3 | 4.3 | 0.00 | 0.00 | 0.00 | 52 | 1021.6 |
| 20260503173007 | 64 | 282 | 2.6 | 6.1 | 0.00 | 0.00 | 0.00 | 48 | 1021.6 |
| 20260503172508 | 64 | 0 | 3.5 | 5.2 | 0.00 | 0.00 | 0.00 | 50 | 1021.8 |
| 20260503172213 | 64 | 340 | 2.6 | 2.6 | 0.00 | 0.00 | 0.00 | 49 | 1021.8 |
| 20260503172009 | 64 | 304 | 0.9 | 4.3 | 0.00 | 0.00 | 0.00 | 48 | 1021.8 |
| 20260503171507 | 64 | 287 | 2.6 | 5.2 | 0.00 | 0.00 | 0.00 | 47 | 1021.8 |
| 20260503171215 | 64 | 309 | 1.7 | 8.7 | 0.00 | 0.00 | 0.00 | 47 | 1022.1 |
| 20260503171008 | 64 | 288 | 2.6 | 2.6 | 0.00 | 0.00 | 0.00 | 52 | 1022.1 |
| 20260503170509 | 63 | 193 | 0.0 | 0.0 | 0.00 | 0.00 | 0.00 | 52 | 1022.1 |
| 20260503170215 | 63 | 213 | 0.0 | 2.6 | 0.00 | 0.00 | 0.00 | 48 | 1022.1 |
| 20260503160213 | 61 | 10 | 4.3 | 4.3 | 0.00 | 0.00 | 0.00 | 52 | 1022.4 |
| 20260503151007 | 60 | 30 | 1.7 | 3.5 | 0.00 | 0.00 | 0.00 | 55 | 1022.4 |
| 20260503150507 | 60 | 337 | 3.5 | 3.5 | 0.00 | 0.00 | 0.00 | 57 | 1022.4 |
| 20260503150214 | 60 | 103 | 0.9 | 1.7 | 0.00 | 0.00 | 0.00 | 58 | 1022.4 |
| 20260503140214 | 56 | 47 | 1.7 | 3.5 | 0.00 | 0.00 | 0.00 | 73 | 1022.3 |
| 20260503131217 | 52 | 359 | 0.0 | 2.6 | 0.00 | 0.00 | 0.00 | 83 | 1022.1 |
| 20260503131008 | 52 | 56 | 0.0 | 0.9 | 0.00 | 0.00 | 0.00 | 84 | 1022.1 |
| 20260503130509 | 52 | 347 | 0.0 | 0.9 | 0.00 | 0.00 | 0.00 | 86 | 1022.1 |
| 20260503130213 | 51 | 0 | 0.9 | 1.7 | 0.00 | 0.00 | 0.00 | 87 | 1022.1 |
| 20260503120214 | 46 | 329 | 1.7 | 3.5 | 0.00 | 0.00 | 0.00 | 96 | 1021.5 |
| 20260503110508 | 45 | 359 | 2.6 | 2.6 | 0.00 | 0.00 | 0.00 | 95 | 1020.9 |
| 20260503110214 | 45 | 0 | 1.7 | 3.5 | 0.00 | 0.00 | 0.00 | 95 | 1020.9 |
| 20260503100216 | 46 | 340 | 1.7 | 1.7 | 0.00 | 0.00 | 0.00 | 90 | 1020.1 |
| 20260503090510 | 48 | 359 | 4.3 | 4.3 | 0.00 | 0.00 | 0.00 | 86 | 1019.9 |
| 20260503090214 | 48 | 1 | 3.5 | 3.5 | 0.00 | 0.00 | 0.00 | 86 | 1019.9 |
| 20260503081508 | 48 | 347 | 1.7 | 2.6 | 0.00 | 0.00 | 0.00 | 83 | 1019.9 |
| 20260503081214 | 48 | 0 | 1.7 | 3.5 | 0.00 | 0.00 | 0.00 | 82 | 1019.7 |
| 20260503081008 | 49 | 359 | 2.6 | 2.6 | 0.00 | 0.00 | 0.00 | 82 | 1019.7 |
| 20260503080509 | 49 | 0 | 1.7 | 3.5 | 0.00 | 0.00 | 0.00 | 82 | 1019.7 |
| 20260503080214 | 49 | 343 | 0.9 | 1.7 | 0.00 | 0.00 | 0.00 | 82 | 1019.7 |
| 20260503072510 | 50 | 17 | 0.9 | 2.6 | 0.00 | 0.00 | 0.00 | 79 | 1019.4 |
| 20260503072213 | 50 | 4 | 1.7 | 5.2 | 0.00 | 0.00 | 0.00 | 78 | 1019.4 |
| 20260503072007 | 50 | 346 | 2.6 | 2.6 | 0.00 | 0.00 | 0.00 | 78 | 1019.4 |
| 20260503071507 | 50 | 7 | 0.9 | 3.5 | 0.00 | 0.00 | 0.00 | 78 | 1019.4 |
| 20260503071219 | 50 | 353 | 2.6 | 2.6 | 0.00 | 0.00 | 0.00 | 78 | 1019.3 |
| 20260503071008 | 50 | 6 | 1.7 | 3.5 | 0.00 | 0.00 | 0.00 | 78 | 1019.3 |
| 20260503070509 | 50 | 20 | 0.9 | 2.6 | 0.00 | 0.00 | 0.00 | 77 | 1019.3 |
| 20260503070215 | 50 | 0 | 1.7 | 2.6 | 0.00 | 0.00 | 0.00 | 77 | 1019.3 |
| 20260503060215 | 52 | 4 | 2.6 | 6.1 | 0.00 | 0.00 | 0.00 | 72 | 1019.1 |
| 20260503055009 | 53 | 4 | 2.6 | 7.0 | 0.00 | 0.00 | 0.00 | 71 | 1019.1 |
| 20260503054508 | 53 | 17 | 1.7 | 5.2 | 0.00 | 0.00 | 0.00 | 70 | 1019.1 |
| 20260503054215 | 53 | 1 | 5.2 | 6.1 | 0.00 | 0.00 | 0.00 | 71 | 1019.0 |
| 20260503054009 | 53 | 0 | 1.7 | 5.2 | 0.00 | 0.00 | 0.00 | 70 | 1019.0 |
| 20260503053510 | 53 | 51 | 2.6 | 7.8 | 0.00 | 0.00 | 0.00 | 70 | 1019.0 |
| 20260503053215 | 53 | 34 | 2.6 | 7.8 | 0.00 | 0.00 | 0.00 | 70 | 1019.0 |
| 20260503053007 | 53 | 337 | 3.5 | 5.2 | 0.00 | 0.00 | 0.00 | 70 | 1019.0 |
| 20260503052508 | 53 | 3 | 1.7 | 3.5 | 0.00 | 0.00 | 0.00 | 70 | 1018.9 |
| 20260503052214 | 53 | 14 | 0.9 | 6.1 | 0.00 | 0.00 | 0.00 | 69 | 1018.9 |
| 20260503052009 | 53 | 30 | 3.5 | 4.3 | 0.00 | 0.00 | 0.00 | 69 | 1018.9 |
| 20260503051509 | 54 | 0 | 4.3 | 4.3 | 0.00 | 0.00 | 0.00 | 69 | 1018.9 |
| 20260503051215 | 54 | 16 | 5.2 | 6.1 | 0.00 | 0.00 | 0.00 | 69 | 1018.9 |
| 20260503051007 | 54 | 27 | 4.3 | 4.3 | 0.00 | 0.00 | 0.00 | 69 | 1018.9 |
| 20260503050510 | 54 | 34 | 6.1 | 6.1 | 0.00 | 0.00 | 0.00 | 69 | 1018.9 |
| 20260503050215 | 54 | 34 | 6.1 | 8.7 | 0.00 | 0.00 | 0.00 | 69 | 1018.9 |
| 20260503050008 | 54 | 31 | 1.7 | 4.3 | 0.00 | 0.00 | 0.00 | 68 | 1018.9 |
| 20260503045508 | 54 | 41 | 8.7 | 8.7 | 0.00 | 0.00 | 0.00 | 68 | 1018.8 |
| 20260503045214 | 54 | 24 | 3.5 | 7.0 | 0.00 | 0.00 | 0.00 | 68 | 1018.8 |
| 20260503045007 | 54 | 0 | 4.3 | 7.8 | 0.00 | 0.00 | 0.00 | 68 | 1018.8 |
| 20260503044508 | 54 | 20 | 2.6 | 7.8 | 0.00 | 0.00 | 0.00 | 68 | 1018.8 |
| 20260503044214 | 54 | 356 | 4.3 | 5.2 | 0.00 | 0.00 | 0.00 | 68 | 1018.6 |
| 20260503044008 | 54 | 6 | 4.3 | 4.3 | 0.00 | 0.00 | 0.00 | 67 | 1018.6 |
| 20260503043509 | 54 | 51 | 8.7 | 8.7 | 0.00 | 0.00 | 0.00 | 66 | 1018.6 |
| 20260503043214 | 55 | 20 | 0.9 | 3.5 | 0.00 | 0.00 | 0.00 | 66 | 1018.6 |
| 20260503043008 | 55 | 34 | 4.3 | 8.7 | 0.00 | 0.00 | 0.00 | 65 | 1018.6 |
| 20260503042508 | 55 | 1 | 5.2 | 5.2 | 0.00 | 0.00 | 0.00 | 64 | 1018.3 |
| 20260503042215 | 55 | 31 | 2.6 | 5.2 | 0.00 | 0.00 | 0.00 | 63 | 1018.3 |
| 20260503042009 | 56 | 23 | 3.5 | 5.2 | 0.00 | 0.00 | 0.00 | 62 | 1018.3 |
| 20260503041507 | 56 | 0 | 2.6 | 5.2 | 0.00 | 0.00 | 0.00 | 61 | 1018.3 |
| 20260503041216 | 56 | 24 | 7.8 | 8.7 | 0.00 | 0.00 | 0.00 | 60 | 1018.1 |
| 20260503041008 | 56 | 18 | 2.6 | 4.3 | 0.00 | 0.00 | 0.00 | 60 | 1018.1 |
| 20260503040508 | 56 | 357 | 2.6 | 3.5 | 0.00 | 0.00 | 0.00 | 60 | 1018.1 |
| 20260503040213 | 56 | 0 | 0.0 | 1.7 | 0.00 | 0.00 | 0.00 | 59 | 1018.1 |
| 20260503040009 | 56 | 4 | 1.7 | 2.6 | 0.00 | 0.00 | 0.00 | 59 | 1018.1 |
| 20260503035508 | 56 | 1 | 1.7 | 2.6 | 0.00 | 0.00 | 0.00 | 59 | 1018.0 |
| 20260503035215 | 56 | 0 | 0.9 | 1.7 | 0.00 | 0.00 | 0.00 | 59 | 1018.0 |
| 20260503035007 | 56 | 0 | 1.7 | 1.7 | 0.00 | 0.00 | 0.00 | 59 | 1018.0 |
| 20260503034508 | 56 | 6 | 1.7 | 1.7 | 0.00 | 0.00 | 0.00 | 58 | 1018.0 |
| 20260503034213 | 56 | 0 | 0.9 | 2.6 | 0.00 | 0.00 | 0.00 | 58 | 1017.9 |
| 20260503034008 | 56 | 0 | 1.7 | 2.6 | 0.00 | 0.00 | 0.00 | 58 | 1017.9 |
| 20260503033508 | 56 | 7 | 2.6 | 3.5 | 0.00 | 0.00 | 0.00 | 58 | 1017.9 |
| 20260503033214 | 56 | 359 | 0.9 | 2.6 | 0.00 | 0.00 | 0.00 | 59 | 1017.9 |
| 20260503033009 | 56 | 0 | 1.7 | 3.5 | 0.00 | 0.00 | 0.00 | 59 | 1017.9 |
| 20260503032508 | 56 | 0 | 1.7 | 2.6 | 0.00 | 0.00 | 0.00 | 59 | 1017.9 |
| 20260503032213 | 56 | 0 | 1.7 | 1.7 | 0.00 | 0.00 | 0.00 | 59 | 1017.9 |
| 20260503032007 | 56 | 350 | 0.0 | 1.7 | 0.00 | 0.00 | 0.00 | 59 | 1017.9 |
| 20260503031508 | 56 | 356 | 0.9 | 1.7 | 0.00 | 0.00 | 0.00 | 58 | 1017.9 |
| 20260503031215 | 56 | 350 | 0.9 | 1.7 | 0.00 | 0.00 | 0.00 | 58 | 1017.9 |
| 20260503031008 | 56 | 344 | 0.9 | 1.7 | 0.00 | 0.00 | 0.00 | 58 | 1017.9 |
| 20260503030508 | 56 | 0 | 0.0 | 0.9 | 0.00 | 0.00 | 0.00 | 58 | 1017.9 |
| 20260503030214 | 56 | 0 | 0.9 | 0.9 | 0.00 | 0.00 | 0.00 | 58 | 1017.9 |
| 20260503030008 | 56 | 0 | 0.9 | 1.7 | 0.00 | 0.00 | 0.00 | 57 | 1017.9 |
| 20260503025509 | 56 | 0 | 0.9 | 2.6 | 0.00 | 0.00 | 0.00 | 57 | 1017.7 |
| 20260503025214 | 56 | 359 | 2.6 | 2.6 | 0.00 | 0.00 | 0.00 | 57 | 1017.7 |
| 20260503025008 | 56 | 7 | 2.6 | 3.5 | 0.00 | 0.00 | 0.00 | 57 | 1017.7 |
| 20260503024507 | 56 | 359 | 1.7 | 3.5 | 0.00 | 0.00 | 0.00 | 57 | 1017.7 |
| 20260503024215 | 56 | 8 | 0.9 | 3.5 | 0.00 | 0.00 | 0.00 | 57 | 1017.6 |
| 20260503024008 | 56 | 0 | 1.7 | 2.6 | 0.00 | 0.00 | 0.00 | 57 | 1017.6 |
| 20260503023508 | 57 | 1 | 1.7 | 2.6 | 0.00 | 0.00 | 0.00 | 58 | 1017.6 |
| 20260503023214 | 57 | 359 | 1.7 | 1.7 | 0.00 | 0.00 | 0.00 | 57 | 1017.6 |
| 20260503023009 | 57 | 359 | 0.0 | 0.9 | 0.00 | 0.00 | 0.00 | 57 | 1017.6 |
| 20260503022507 | 57 | 359 | 0.0 | 0.9 | 0.00 | 0.00 | 0.00 | 56 | 1017.4 |
| 20260503022215 | 57 | 0 | 0.9 | 1.7 | 0.00 | 0.00 | 0.00 | 56 | 1017.4 |
| 20260503022008 | 57 | 0 | 0.0 | 1.7 | 0.00 | 0.00 | 0.00 | 56 | 1017.4 |
| 20260503021508 | 57 | 0 | 1.7 | 3.5 | 0.00 | 0.00 | 0.00 | 55 | 1017.4 |
| 20260503021214 | 57 | 0 | 3.5 | 3.5 | 0.00 | 0.00 | 0.00 | 56 | 1017.2 |
| 20260503021009 | 57 | 3 | 1.7 | 2.6 | 0.00 | 0.00 | 0.00 | 56 | 1017.2 |
| 20260503020507 | 57 | 4 | 0.0 | 2.6 | 0.00 | 0.00 | 0.00 | 54 | 1017.2 |
| 20260503020214 | 57 | 342 | 0.9 | 4.3 | 0.00 | 0.00 | 0.00 | 54 | 1017.2 |
| 20260503020008 | 57 | 343 | 0.0 | 3.5 | 0.00 | 0.00 | 0.00 | 55 | 1017.2 |
| 20260503015508 | 57 | 336 | 2.6 | 2.6 | 0.00 | 0.00 | 0.00 | 55 | 1017.0 |
| 20260503015213 | 57 | 350 | 2.6 | 2.6 | 0.00 | 0.00 | 0.00 | 55 | 1017.0 |
| 20260503015009 | 57 | 0 | 1.7 | 1.7 | 0.00 | 0.00 | 0.00 | 55 | 1017.0 |
| 20260503014507 | 57 | 332 | 0.9 | 1.7 | 0.00 | 0.00 | 0.00 | 55 | 1017.0 |
| 20260503014215 | 57 | 350 | 1.7 | 2.6 | 0.00 | 0.00 | 0.00 | 55 | 1016.9 |
| 20260503014007 | 57 | 340 | 1.7 | 1.7 | 0.00 | 0.00 | 0.00 | 55 | 1016.9 |
| 20260503013509 | 57 | 336 | 0.9 | 0.9 | 0.00 | 0.00 | 0.00 | 55 | 1016.9 |
| 20260503013215 | 58 | 342 | 0.9 | 1.7 | 0.00 | 0.00 | 0.00 | 55 | 1016.9 |
| 20260503013009 | 58 | 304 | 2.6 | 2.6 | 0.00 | 0.00 | 0.00 | 54 | 1016.9 |
| 20260503012508 | 58 | 294 | 2.6 | 4.3 | 0.00 | 0.00 | 0.00 | 54 | 1016.7 |
| 20260503012214 | 58 | 336 | 1.7 | 3.5 | 0.00 | 0.00 | 0.00 | 54 | 1016.7 |
| 20260503012009 | 58 | 356 | 0.0 | 1.7 | 0.00 | 0.00 | 0.00 | 53 | 1016.7 |
| 20260503011508 | 58 | 328 | 0.0 | 3.5 | 0.00 | 0.00 | 0.00 | 53 | 1016.7 |
| 20260503011214 | 58 | 312 | 0.9 | 1.7 | 0.00 | 0.00 | 0.00 | 53 | 1016.6 |
| 20260503011009 | 58 | 0 | 0.9 | 1.7 | 0.00 | 0.00 | 0.00 | 52 | 1016.6 |
| 20260503010508 | 58 | 323 | 2.6 | 3.5 | 0.00 | 0.00 | 0.00 | 52 | 1016.6 |
| 20260503010216 | 59 | 339 | 0.9 | 2.6 | 0.00 | 0.00 | 0.00 | 52 | 1016.6 |
| 20260503010009 | 59 | 342 | 0.9 | 2.6 | 0.00 | 0.00 | 0.00 | 52 | 1016.6 |
| 20260503005509 | 59 | 323 | 0.9 | 1.7 | 0.00 | 0.00 | 0.00 | 51 | 1016.5 |
| 20260503005213 | 59 | 333 | 2.6 | 2.6 | 0.00 | 0.00 | 0.00 | 51 | 1016.5 |
| 20260503005008 | 59 | 347 | 0.9 | 1.7 | 0.00 | 0.00 | 0.00 | 51 | 1016.5 |
| 20260503004507 | 60 | 357 | 2.6 | 2.6 | 0.00 | 0.00 | 0.00 | 50 | 1016.5 |
| 20260503004215 | 60 | 340 | 2.6 | 2.6 | 0.00 | 0.00 | 0.00 | 50 | 1016.2 |
| 20260503004008 | 60 | 337 | 1.7 | 2.6 | 0.00 | 0.00 | 0.00 | 50 | 1016.2 |
| 20260503003509 | 60 | 359 | 1.7 | 1.7 | 0.00 | 0.00 | 0.00 | 50 | 1016.2 |
| 20260503003214 | 60 | 308 | 0.9 | 1.7 | 0.00 | 0.00 | 0.00 | 50 | 1016.2 |
| 20260503003008 | 61 | 349 | 0.0 | 1.7 | 0.00 | 0.00 | 0.00 | 50 | 1016.2 |
| 20260503002508 | 61 | 340 | 0.9 | 1.7 | 0.00 | 0.00 | 0.00 | 48 | 1015.9 |
| 20260503002216 | 61 | 347 | 0.0 | 0.9 | 0.00 | 0.00 | 0.00 | 48 | 1015.9 |
| 20260503002007 | 61 | 347 | 0.9 | 1.7 | 0.00 | 0.00 | 0.00 | 47 | 1015.9 |
| 20260503001509 | 62 | 353 | 0.0 | 0.0 | 0.00 | 0.00 | 0.00 | 45 | 1015.9 |
| 20260503001214 | 62 | 56 | 0.9 | 0.9 | 0.00 | 0.00 | 0.00 | 45 | 1015.7 |
| 20260503001008 | 62 | 349 | 0.0 | 0.0 | 0.00 | 0.00 | 0.00 | 45 | 1015.7 |
| 20260503000508 | 62 | 340 | 0.9 | 1.7 | 0.00 | 0.00 | 0.00 | 45 | 1015.7 |
| 20260503000215 | 62 | 4 | 0.9 | 3.5 | 0.00 | 0.00 | 0.00 | 45 | 1015.7 |
| 20260503000008 | 62 | 0 | 2.6 | 2.6 | 0.00 | 0.00 | 0.00 | 45 | 1015.7 |
| 20260502235509 | 62 | 330 | 4.3 | 6.1 | 0.00 | 0.00 | 0.00 | 44 | 1015.6 |
| 20260502235215 | 63 | 71 | 0.0 | 1.7 | 0.00 | 0.00 | 0.00 | 44 | 1015.6 |
| 20260502235009 | 63 | 354 | 4.3 | 8.7 | 0.00 | 0.00 | 0.00 | 45 | 1015.6 |
| 20260502234507 | 63 | 337 | 1.7 | 3.5 | 0.00 | 0.00 | 0.00 | 43 | 1015.6 |
| 20260502234216 | 63 | 0 | 1.7 | 5.2 | 0.00 | 0.00 | 0.00 | 43 | 1015.5 |
| 20260502234007 | 63 | 357 | 2.6 | 2.6 | 0.00 | 0.00 | 0.00 | 43 | 1015.5 |
| 20260502233508 | 63 | 319 | 5.2 | 5.2 | 0.00 | 0.00 | 0.00 | 42 | 1015.5 |
| 20260502233215 | 63 | 330 | 2.6 | 4.3 | 0.00 | 0.00 | 0.00 | 42 | 1015.5 |
| 20260502233012 | 63 | 342 | 1.7 | 7.8 | 0.00 | 0.00 | 0.00 | 41 | 1015.5 |
| 20260502232507 | 64 | 342 | 3.5 | 4.3 | 0.00 | 0.00 | 0.00 | 42 | 1015.4 |
| 20260502232214 | 64 | 295 | 4.3 | 4.3 | 0.00 | 0.00 | 0.00 | 41 | 1015.4 |
| 20260502232009 | 64 | 299 | 1.7 | 3.5 | 0.00 | 0.00 | 0.00 | 41 | 1015.4 |
| 20260502231509 | 64 | 344 | 4.3 | 5.2 | 0.00 | 0.00 | 0.00 | 41 | 1015.4 |
| 20260502231214 | 64 | 339 | 1.7 | 8.7 | 0.00 | 0.00 | 0.00 | 40 | 1015.4 |
| 20260502231008 | 64 | 6 | 5.2 | 7.8 | 0.00 | 0.00 | 0.00 | 41 | 1015.4 |
| 20260502230512 | 64 | 335 | 1.7 | 3.5 | 0.00 | 0.00 | 0.00 | 41 | 1015.4 |
| 20260502230215 | 64 | 0 | 5.2 | 6.1 | 0.00 | 0.00 | 0.00 | 42 | 1015.4 |
| 20260502230012 | 64 | 342 | 4.3 | 4.3 | 0.00 | 0.00 | 0.00 | 42 | 1015.4 |
| 20260502225511 | 64 | 357 | 0.9 | 2.6 | 0.00 | 0.00 | 0.00 | 42 | 1015.5 |
| 20260502225214 | 64 | 24 | 1.7 | 1.7 | 0.00 | 0.00 | 0.00 | 41 | 1015.5 |
| 20260502225013 | 64 | 7 | 0.9 | 4.3 | 0.00 | 0.00 | 0.00 | 41 | 1015.5 |
| 20260502224512 | 64 | 352 | 4.3 | 5.2 | 0.00 | 0.00 | 0.00 | 40 | 1015.5 |
| 20260502224215 | 64 | 304 | 4.3 | 7.8 | 0.00 | 0.00 | 0.00 | 40 | 1015.4 |
| 20260502224012 | 64 | 0 | 4.3 | 5.2 | 0.00 | 0.00 | 0.00 | 40 | 1015.4 |
| 20260502223512 | 64 | 325 | 3.5 | 7.8 | 0.00 | 0.00 | 0.00 | 41 | 1015.4 |
| 20260502223214 | 64 | 0 | 3.5 | 3.5 | 0.00 | 0.00 | 0.00 | 41 | 1015.4 |
| 20260502223012 | 64 | 359 | 0.9 | 7.8 | 0.00 | 0.00 | 0.00 | 40 | 1015.4 |
| 20260502222513 | 64 | 357 | 0.9 | 4.3 | 0.00 | 0.00 | 0.00 | 39 | 1015.4 |
| 20260502222215 | 64 | 0 | 7.0 | 8.7 | 0.00 | 0.00 | 0.00 | 38 | 1015.4 |
| 20260502222012 | 64 | 352 | 8.7 | 8.7 | 0.00 | 0.00 | 0.00 | 38 | 1015.4 |
| 20260502221511 | 64 | 1 | 2.6 | 10.4 | 0.00 | 0.00 | 0.00 | 40 | 1015.4 |
| 20260502221214 | 64 | 311 | 3.5 | 4.3 | 0.00 | 0.00 | 0.00 | 40 | 1015.3 |
| 20260502221011 | 64 | 58 | 0.0 | 0.9 | 0.00 | 0.00 | 0.00 | 40 | 1015.3 |
| 20260502220512 | 64 | 37 | 6.1 | 6.1 | 0.00 | 0.00 | 0.00 | 40 | 1015.3 |
| 20260502220214 | 64 | 1 | 6.1 | 7.0 | 0.00 | 0.00 | 0.00 | 41 | 1015.3 |
| 20260502220011 | 65 | 52 | 2.6 | 2.6 | 0.00 | 0.00 | 0.00 | 40 | 1015.3 |
| 20260502215300 | 65 | 1 | 5.2 | 6.1 | 0.00 | 0.00 | 0.00 | 39 | 1015.2 |
| 20260502215215 | 65 | 31 | 2.6 | 2.6 | 0.00 | 0.00 | 0.00 | 39 | 1015.2 |
| 20260502214800 | 66 | 233 | 0.9 | 1.7 | 0.00 | 0.00 | 0.00 | 40 | 1015.2 |
| 20260502214301 | 66 | 356 | 1.7 | 5.2 | 0.00 | 0.00 | 0.00 | 38 | 1015.2 |
| 20260502214214 | 66 | 356 | 1.7 | 5.2 | 0.00 | 0.00 | 0.00 | 38 | 1015.2 |
| 20260502213800 | 66 | 3 | 2.6 | 8.7 | 0.00 | 0.00 | 0.00 | 39 | 1015.2 |
| 20260502213301 | 66 | 0 | 5.2 | 7.8 | 0.00 | 0.00 | 0.00 | 37 | 1015.2 |
| 20260502213215 | 66 | 0 | 5.2 | 7.8 | 0.00 | 0.00 | 0.00 | 37 | 1015.2 |
| 20260502212800 | 66 | 330 | 3.5 | 5.2 | 0.00 | 0.00 | 0.00 | 40 | 1015.2 |
| 20260502212304 | 66 | 59 | 2.6 | 4.3 | 0.00 | 0.00 | 0.00 | 41 | 1015.2 |
| 20260502212214 | 66 | 59 | 2.6 | 4.3 | 0.00 | 0.00 | 0.00 | 41 | 1015.2 |
| 20260502211801 | 66 | 292 | 5.2 | 8.7 | 0.00 | 0.00 | 0.00 | 40 | 1015.2 |
| 20260502211300 | 66 | 27 | 1.7 | 7.8 | 0.00 | 0.00 | 0.00 | 39 | 1015.3 |
| 20260502211214 | 66 | 27 | 1.7 | 7.8 | 0.00 | 0.00 | 0.00 | 39 | 1015.3 |
| 20260502210800 | 66 | 311 | 4.3 | 7.8 | 0.00 | 0.00 | 0.00 | 40 | 1015.3 |
| 20260502210301 | 66 | 23 | 2.6 | 6.1 | 0.00 | 0.00 | 0.00 | 38 | 1015.3 |
| 20260502210214 | 66 | 23 | 2.6 | 6.1 | 0.00 | 0.00 | 0.00 | 38 | 1015.3 |
| 20260502205800 | 66 | 350 | 7.8 | 8.7 | 0.00 | 0.00 | 0.00 | 38 | 1015.2 |
| 20260502205300 | 66 | 1 | 4.3 | 8.7 | 0.00 | 0.00 | 0.00 | 38 | 1015.2 |
| 20260502205214 | 66 | 1 | 4.3 | 8.7 | 0.00 | 0.00 | 0.00 | 38 | 1015.2 |
| 20260502204802 | 66 | 343 | 7.8 | 8.7 | 0.00 | 0.00 | 0.00 | 41 | 1015.2 |
| 20260502204301 | 66 | 313 | 2.6 | 7.0 | 0.00 | 0.00 | 0.00 | 40 | 1015.4 |
| 20260502204213 | 66 | 313 | 2.6 | 7.0 | 0.00 | 0.00 | 0.00 | 40 | 1015.4 |
| 20260502203800 | 66 | 0 | 7.0 | 7.8 | 0.00 | 0.00 | 0.00 | 39 | 1015.4 |
| 20260502203301 | 66 | 325 | 7.8 | 8.7 | 0.00 | 0.00 | 0.00 | 40 | 1015.4 |
| 20260502203216 | 66 | 325 | 7.8 | 8.7 | 0.00 | 0.00 | 0.00 | 40 | 1015.4 |
| 20260502202801 | 66 | 17 | 3.5 | 10.4 | 0.00 | 0.00 | 0.00 | 40 | 1015.3 |
| 20260502202300 | 66 | 68 | 0.0 | 6.1 | 0.00 | 0.00 | 0.00 | 40 | 1015.3 |
| 20260502202215 | 66 | 68 | 0.0 | 6.1 | 0.00 | 0.00 | 0.00 | 40 | 1015.3 |
| 20260502201801 | 66 | 3 | 7.8 | 8.7 | 0.00 | 0.00 | 0.00 | 40 | 1015.3 |
| 20260502201301 | 66 | 322 | 5.2 | 8.7 | 0.00 | 0.00 | 0.00 | 40 | 1015.4 |
| 20260502201214 | 66 | 322 | 5.2 | 8.7 | 0.00 | 0.00 | 0.00 | 40 | 1015.4 |
| 20260502200802 | 66 | 71 | 4.3 | 15.6 | 0.00 | 0.00 | 0.00 | 38 | 1015.4 |
| 20260502200300 | 66 | 311 | 0.9 | 13.0 | 0.00 | 0.00 | 0.00 | 41 | 1015.4 |
| 20260502200214 | 66 | 311 | 0.9 | 13.0 | 0.00 | 0.00 | 0.00 | 41 | 1015.4 |
| 20260502195800 | 67 | 8 | 8.7 | 13.9 | 0.00 | 0.00 | 0.00 | 38 | 1015.5 |
| 20260502195301 | 67 | 28 | 1.7 | 9.6 | 0.00 | 0.00 | 0.00 | 38 | 1015.5 |
| 20260502195215 | 67 | 28 | 1.7 | 9.6 | 0.00 | 0.00 | 0.00 | 38 | 1015.5 |
| 20260502194802 | 66 | 0 | 7.8 | 8.7 | 0.00 | 0.00 | 0.00 | 39 | 1015.5 |
| 20260502194301 | 66 | 304 | 1.7 | 7.8 | 0.00 | 0.00 | 0.00 | 39 | 1015.6 |
| 20260502194215 | 66 | 304 | 1.7 | 7.8 | 0.00 | 0.00 | 0.00 | 39 | 1015.6 |
| 20260502193801 | 66 | 4 | 3.5 | 6.1 | 0.00 | 0.00 | 0.00 | 38 | 1015.6 |
| 20260502193301 | 66 | 32 | 4.3 | 7.8 | 0.00 | 0.00 | 0.00 | 40 | 1015.6 |
| 20260502193216 | 66 | 32 | 4.3 | 7.8 | 0.00 | 0.00 | 0.00 | 40 | 1015.6 |
| 20260502192802 | 66 | 359 | 8.7 | 8.7 | 0.00 | 0.00 | 0.00 | 38 | 1015.5 |